Regional Weather Roundup
Issued by NWS Northern Indiana

Home | Current Version | Previous Version | Text Only | Print | Product List | Glossary On
Versions: 1 2 3 4 5 6 7 8 9 10 11 12 13 14 15 16 17 18 19 20 21 22 23 24 25 26 27 28 29 30 31 32 33 34 35 36 37 38 39 40 41 42 43 44 45 46 47 48 49 50
000
ASUS43 KIWX 272110
RWRIWX

KIWX WEATHER ROUNDUP
NATIONAL WEATHER SERVICE NORTHERN INDIANA
500 PM EDT THU JUL 27 2017

NOTE: "FAIR" INDICATES FEW OR NO CLOUDS BELOW 12,000 FEET WITH NO
SIGNIFICANT WEATHER AND/OR OBSTRUCTIONS TO VISIBILITY.

* THESE STATIONS ARE NOT UNDER NWS QUALITY CONTROL. THEY ALSO MAY NOT
  REPORT WEATHER SUCH AS PRECIPITATION OR FOG.

INZ001>027-272200-
NORTHERN INDIANA

CITY           SKY/WX    TMP DP  RH WIND       PRES   REMARKS
GARY*          CLOUDY    77  70  78 N16       29.94S
VALPARAISO     CLOUDY    78  71  79 N13       29.92S
MICHIGAN CITY* CLOUDY    77  70  78 N10G16    29.93S
LAPORTE*       SUNNY     79  72  79 N14G20    29.92S
KNOX*          CLOUDY    79  73  83 N9        29.89S
SOUTH BEND     MOSUNNY   83  71  67 NW14      29.89F
ELKHART*       PTSUNNY   82  68  61 CALM      29.88F
GOSHEN         MOSUNNY   87  66  49 N7        29.88F
MONTICELLO*    CLOUDY    82  75  79 N8        29.88F
LOGANSPORT*    CLOUDY    79  72  78 N6        29.88F
ROCHESTER*     MOSUNNY   82  72  69 N5        29.89F
WARSAW*        MOSUNNY   81  72  74 E3        29.89F
AUBURN*        CLOUDY    81  70  69 CALM      29.89S
FORT WAYNE     CLOUDY    80  73  79 N5        29.89S
HUNTINGTON*    CLOUDY    79  75  89 CALM      29.88F
PERU/GRISSOM   PTSUNNY   80  73  79 N8        29.87F
MARION*        CLOUDY    79  73  83 N5        29.89F

$$
INZ028>050-272200-
CENTRAL INDIANA

CITY           SKY/WX    TMP DP  RH WIND       PRES   REMARKS
LAFAYETTE      CLOUDY    81  74  79 N8        29.87F
MUNCIE*        RAIN      78  73  84 N13       29.89S
INDIANAPOLIS   CLOUDY    79  72  79 W10       29.89F

$$
MIZ043>046-050>051-056>058-064>065-071>073-077>080-272200-
SOUTHWEST LOWER MICHIGAN

CITY           SKY/WX    TMP DP  RH WIND       PRES   REMARKS
BATTLE CREEK   MOSUNNY   86  69  56 N14       29.91S
BENTON HARBOR  SUNNY     79  69  71 VRB7      29.91S
COLDWATER*     MOSUNNY   83  63  49 NE3       29.89F
HILLSDALE*     CLOUDY    82  61  47 NE10      29.90S
HOLLAND        MOSUNNY   86  64  47 N9        29.92F
GRAND RAPIDS   PTSUNNY   84  68  58 NE15      29.93S
KALAMAZOO      PTSUNNY   85  67  54 N10G18    29.90S
STURGIS*       MOSUNNY   83  68  58 NE6       29.89S
THREE RIVERS*  FAIR      84  64  49 E3        29.89F

$$
OHZ001>008-015>018-024>025-272200-
NORTHWEST OHIO

CITY           SKY/WX    TMP DP  RH WIND       PRES   REMARKS
WAUSEON*       PTSUNNY   84  70  61 NE8       29.88S
DEFIANCE       MOSUNNY   82  71  69 SE5       29.87F
FINDLAY        CLOUDY    81  69  67 E12       29.87S
TOLEDO EXPRESS CLOUDY    85  68  56 NE10      29.87F
TOLEDO METCALF SUNNY     83  66  56 E8        29.88F
LIMA           PTSUNNY   80  71  74 W3        29.88S

$$
AND FOR LAKE MICHIGAN COASTAL AND OPEN LAKE BUOY OBSERVATIONS

STATION/POSITION TEMP    WIND        PRES    VSBY  WAVE
                 AIR SEA DIR/SP/G                  HT/PER
                 (F)     (DEG/KT/KT) (MB)    (MI)  (FT/S)
CALUMET HARBOR    73     340/ 14/ 17 1013.5R
MICHIGAN CITY     74     350/ 17/ 19   N/A
BURNS HARBOR      73     360/ 14/ 16 1013.9S
SAINT JOSEPH      75      10/ 10/ 14 1013.9
SOUTH LAKE BUOY   70 71   10/ 16/ 19 1013.8          2/ 3
4 MI NW BRIDGMAN  73 74   20/ 16/ 19 1012.7          3/ 4
MICHIGAN CITY     73 75  360/ 16/ 19   N/A           5/ 4

$$
&&




USA.gov is the U.S. government's official web portal to all federal, state and local government web resources and services.